Regional Weather Roundup
Issued by NWS Burlington, VT

Home | Current Version | Previous Version | Text Only | Print | Product List | Glossary On
Versions: 1 2 3 4 5 6 7 8 9 10 11 12 13 14 15 16 17 18 19 20 21 22 23 24 25 26 27 28 29 30 31 32 33 34 35 36 37 38 39 40 41 42 43 44 45 46 47 48 49 50
107
ASUS41 KBTV 250330
RWRBTV
VERMONT REGIONAL WEATHER ROUNDUP
NATIONAL WEATHER SERVICE BURLINGTON VT
1000 PM EST FRI FEB 24 2017

NOTE: "FAIR" INDICATES FEW OR NO CLOUDS BELOW 12,000 FEET WITH NO
SIGNIFICANT WEATHER AND/OR OBSTRUCTIONS TO VISIBILITY.

* THESE REPORTS ARE NOT UNDER NWS QUALITY CONTROL AND/OR DO NOT
  REPORT WEATHER SUCH AS PRECIPITATION AND FOG.

VTZ001>019-250400-
_____VERMONT_____


CITY           SKY/WX    TMP DP  RH WIND       PRES   REMARKS
BURLINGTON     FOG       38  38 100 CALM      29.77S VSB 1/4
MONTPELIER     FOG       37  37 100 CALM      29.81S VSB 1/2
MORRISVILLE    FOG       32  32 100 CALM      29.77S VSB 1/4
ST. JOHNSBURY*   N/A     37  37 100 MISG      29.77F
LYNDONVILLE*   DRZL/FOG  40  39  99 CALM      29.80R VSB<1/4
MIDDLEBURY*    FOG       39  39 100 CALM      29.77S VSB 1/4
RUTLAND*       FAIR      42  41  96 SE8       29.79R
SPRINGFIELD    FAIR      35  32  88 CALM      29.82S
HIGHGATE*      CLOUDY    34  34  99 CALM      29.78S FOG
NEWPORT*       FOG       36  35  99 S5        29.76F VSB 3/4 WCI  32
BENNINGTON     FAIR      61  50  67 CALM      29.79R
SUTTON*          N/A     43 N/A N/A MISG        N/A
ISLAND POND*     N/A     36 N/A N/A E1          N/A
GALLUP MILLS*    N/A     32 N/A N/A MISG        N/A
UNION VILLAGE*   N/A     36 N/A N/A MISG        N/A
MT. MANSFIELD*   N/A     48 N/A N/A SW25G44     N/A

_____LAKE CHAMPLAIN_____


CITY           SKY/WX    TMP DP  RH WIND       PRES   REMARKS
BURTON ISLAND*   N/A     34  34 100 SE1         N/A
COLCHESTER RF*   N/A     36  36 100 NE3         N/A
DIAMOND ISL*     N/A     37  37 100 S3          N/A

$$

NYZ007-026>031-035-052-083-087-250400-
_____NORTHERN NEW YORK_____


CITY           SKY/WX    TMP DP  RH WIND       PRES   REMARKS
PLATTSBURGH    CLOUDY    36  35  96 N6        29.78R FOG     WCI  31
SARANAC LAKE   FAIR      33  33 100 CALM      29.70S
MASSENA        CLOUDY    34  33  96 NE17      29.76F WCI  23
OGDENSBURG*    CLOUDY    36  35  98 E14       29.70F FOG     WCI  27
POTSDAM*       FOG       36  36 100 E10       29.72F VSB 1   WCI  28
STARK FALLS*     N/A     43 N/A N/A NE3         N/A
WATERTOWN      CLOUDY    39  38  96 E9        29.64F FOG
FT DRUM        CLOUDY    37  36  93 NE9       29.65F FOG     WCI  31
ALBANY         MOCLDY    62  51  67 S13G21    29.79R
GLENS FALLS    FOG       42  40  92 CALM      29.79R VSB 1/4

$$
NHZ002-005-011-250400-
_____NEW HAMPSHIRE_____


CITY           SKY/WX    TMP DP  RH WIND       PRES   REMARKS
LEBANON        FOG       38  38 100 CALM      29.80S VSB 1/4
KEENE          FAIR      48  47  96 CALM      29.84S
MT WASHINGTON  PTCLDY    41  39  93 SW41        N/A  WCI  28
PLYMOUTH       FOG       36  36 100 CALM      29.84S VSB 1/4
WHITEFIELD     FOG       36  34  92 CALM      29.79F VSB 1/4

$$

_____REGIONAL QUEBEC LOCATIONS_____


CITY           SKY/WX    TMP DP  RH WIND       PRES   REMARKS
MONTREAL       LGT RAIN  34  32  93 NE21G28   29.80F WCI  22
QUEBEC CITY    FRZ RAIN  30  27  86 E20G31    29.91S FOG     WCI  18
SHERBROOKE     CLOUDY    37  36  93 NE5       29.76S

_____REGIONAL ONTARIO LOCATIONS_____


CITY           SKY/WX    TMP DP  RH WIND       PRES   REMARKS
OTTAWA         CLOUDY    34  32  93 E15G22    29.72F WCI  24

______KEY______
VSB  - VISIBILITY IN MILES
WCI  - WIND CHILL INDEX
HX   - HEAT INDEX
$$
NNNN




USA.gov is the U.S. government's official web portal to all federal, state and local government web resources and services.